Regional Weather Roundup
Issued by NWS

Home | Current Version | Previous Version | Text Only | Print | Product List | Glossary Off
Versions: 1 2 3 4 5 6 7 8 9 10 11 12 13 14 15 16 17 18 19 20 21 22 23 24 25 26 27 28 29 30 31 32 33 34 35 36 37 38 39 40 41 42 43 44 45 46 47 48 49 50

180
ASUS43 KLMK 010210
RWRKY
KENTUCKY REGIONAL WEATHER ROUNDUP
NATIONAL WEATHER SERVICE LOUISVILLE KY
1000 PM EDT SAT APR 30 2016

NOTE "FAIR" INDICATES FEW OR NO CLOUDS BELOW 12,000 FEET
WITH NO SIGNIFICANT WEATHER AND/OR OBSTRUCTIONS TO VISIBILITY.

KYZ001>023-026-027-061>063-070>075-010300-
WESTERN AND SOUTH CENTRAL KENTUCKY

CITY           SKY/WX    TMP DP  RH WIND       PRES   REMARKS
PADUCAH        CLEAR     66  61  84 SE3       29.81F
HENDERSON      CLOUDY    68  63  83 S7        29.84R
OWENSBORO      CLOUDY    68  66  93 S9        29.86S
HOPKINSVILLE   DRIZZLE   66  66 100 CALM      29.87S
BOWLING GREEN  LGT RAIN  68  66  93 CALM      29.90R
GLASGOW        LGT RAIN  65  65 100 NE3       29.91R
$$

KYZ024-025-028>034-038-045-046-053-010300-
NORTH CENTRAL KENTUCKY

CITY           SKY/WX    TMP DP  RH WIND       PRES   REMARKS
LOUISVILLE/SDF CLOUDY    65  63  93 S9        29.88F
LOUISVILLE/LOU CLOUDY    65  62  90 S7        29.89S
FORT KNOX      LGT RAIN  64  63  96 SE6       29.89R
$$

KYZ035>037-039>044-047>052-055>060-089>105-010300-
NORTHEAST KENTUCKY

CITY           SKY/WX    TMP DP  RH WIND       PRES   REMARKS
LEXINGTON      LGT RAIN  62  60  93 S10       29.94S
COVINGTON      LGT RAIN  60  60 100 S10       29.91S
FRANKFORT      LGT RAIN  63  60  90 SE6       29.91S
$$

KYZ054-064>069-076>088-106>120-010300-
SOUTHEAST KENTUCKY

CITY           SKY/WX    TMP DP  RH WIND       PRES   REMARKS
JACKSON        RAIN      61  59  93 CALM      30.00R VSB 3/4
LONDON         HVY RAIN  62  60  93 E5        29.99R VSB 1
SOMERSET       CLOUDY    61  61 100 CALM      29.98R
MIDDLESBORO    RAIN      62  62 100 W3        30.02S
MONTICELLO     CLOUDY    65  64  97 E6        29.97S
$$





USA.gov is the U.S. government's official web portal to all federal, state and local government web resources and services.